This demonstration page uses our WeatherBlox Daily Observations layout. Learn more.

Left ArrowRight Arrow

39.01783, -85.05884

Hourly Observations for June 17, 2017

Temp ( °F °C ) Dew Point ( °F °C ) Humidity (%) Winds ( mph kmh ) Pressure ( in mb ) Visibility ( mi km ) Precip ( " mm )
12:52 am 00:52 Partly Cloudy 74 23.3 66 18.9 76 76 SSW 6 9 29.79 1009 10 16 N/A
1:52 am 01:52 Partly Cloudy 70 21.1 66 18.9 87 87 SSW 6 9 29.78 1008 10 16 N/A
2:52 am 02:52 Partly Cloudy 72 22.2 66 18.9 82 82 SSW 5 7 29.77 1008 10 16 N/A
3:52 am 03:52 Clear 70 21.1 67 19.4 90 90 N N/A 29.78 1008 9 14 N/A
4:52 am 04:52 Clear 69 20.6 66 18.9 90 90 N N/A 29.77 1008 9 14 N/A
5:52 am 05:52 Mostly Clear 64 17.8 64 17.8 100 100 S 6 9 29.79 1009 9 14 N/A
6:52 am 06:52 Mostly Cloudy 69 20.6 67 19.4 93 93 SSW 5 7 29.80 1009 8 13 N/A
7:52 am 07:52 Mostly Cloudy with Mist and Fog 72 22.2 68 20 87 87 SSW 5 7 29.80 1009 6 10 N/A
8:52 am 08:52 Mostly Cloudy 75 23.9 68 20 79 79 SW 7 11 29.81 1010 8 13 N/A
9:52 am 09:52 Mostly Cloudy 78 25.6 69 20.6 74 74 SW 10 17 29.81 1010 7 11 N/A
10:52 am 10:52 Mostly Cloudy 81 27.2 69 20.6 67 67 SSW 12 19 29.79 1009 9 14 N/A
11:52 am 11:52 Mostly Cloudy 83 28.3 68 20 61 61 S 16 26 29.79 1009 10 16 N/A
12:52 pm 12:52 Mostly Cloudy 84 28.9 68 20 59 59 SSW 10 17 29.78 1009 10 16 N/A
1:52 pm 13:52 Partly Cloudy 85 29.4 67 19.4 55 55 SSW 13 20 29.77 1008 10 16 N/A
2:52 pm 14:52 Partly Cloudy 86 30 67 19.4 53 53 S 14 22 29.75 1008 10 16 N/A
3:52 pm 15:52 Mostly Cloudy 86 30 66 18.9 51 51 S 17 28 29.75 1007 10 16 N/A
4:52 pm 16:52 Mostly Cloudy 87 30.6 67 19.4 51 51 S 14 22 29.73 1007 10 16 N/A
5:52 pm 17:52 Mostly Cloudy 86 30 65 18.3 49 49 SW 13 20 29.74 1007 10 16 N/A
6:52 pm 18:52 Mostly Cloudy 84 28.9 66 18.9 55 55 SSW 14 22 29.73 1007 10 16 N/A
7:52 pm 19:52 Mostly Cloudy 83 28.3 68 20 61 61 S 9 15 29.72 1007 10 16 N/A
8:52 pm 20:52 Mostly Cloudy 81 27.2 67 19.4 62 62 S 8 13 29.72 1007 10 16 N/A
9:52 pm 21:52 Partly Cloudy 78 25.6 67 19.4 69 69 S 8 13 29.73 1007 10 16 N/A
10:52 pm 22:52 Partly Cloudy 76 24.4 67 19.4 74 74 S 9 15 29.72 1007 10 16 N/A
11:52 pm 23:52 Partly Cloudy 75 23.9 67 19.4 76 76 S 8 13 29.74 1007 10 16 N/A

Powered by AerisWeather